sat.trackr.live / text

‹ back to catalog

STARLINK-32682

NORAD 62196 · 2024-229E

PAYLOAD ACTIVE UNKNOWN

§ Identity

Operator
Country
US
Launch date
2024-12-04
Launch site
AFETR
Launch vehicle
Mass (kg)
RCS (m²)

Purposes: comms

External: N2YO · Heavens-Above · Gunter

§ Orbital elements

Epoch: 2026-05-24T11:13:50.359008Z

Period
94.27 min
Inclination
43.0032°
Eccentricity
0.0001691
Mean motion
15.27597317 rev/d
Perigee alt
481.8 km
Apogee alt
484.2 km
Semi-major
6,861.1 km
B*
4.8415e-4
RAAN
170.0897°
Arg perigee
274.0012°
Mean anomaly
86.0647°
Rev number
8,252

§ Raw data

STARLINK-326821 62196U 24229E   26144.46794397  .00013091  00000+0  48415-3 0  99972 62196  43.0032 170.0897 0001691 274.0012  86.0647 15.27597317 82528

JSON: /api/v1/satellites/62196 · /tle

For live sub-satellite position, see the globe view (requires WebGL).

§ Visibility from observer

Set your observer location to see the next 7 days of passes ≥ 10°. The values pass through the URL so the page stays shareable.

No JS? Fill the form by hand. The geolocation button needs JavaScript.